Regional Weather Roundup
Issued by NWS

Home | Current Version | Previous Version | Text Only | Print | Product List | Glossary On
Versions: 1 2 3 4 5 6 7 8 9 10 11 12 13 14 15 16 17 18 19 20 21 22 23 24 25 26 27 28 29 30 31 32 33 34 35 36 37 38 39 40 41 42 43 44 45 46 47 48 49 50
241
ASUS44 KJAN 221203
RWRMS

MISSISSIPPI HOURLY WEATHER ROUNDUP
NATIONAL WEATHER SERVICE JACKSON MS
700 AM CDT FRI AUG 22 2014

NOTE: "FAIR: INDICATES FEW OR NO CLOUDS BELOW 12,000 FEET WITH NO
SIGNIFICANT WEATHER AND/OR OBSTRUCTIONS TO VISIBILITY.

MSZ001>002-007>008-010>013-018>021-025>028-034>036-221300-
NORTHWEST MISSISSIPPI

CITY           SKY/WX    TMP DP  RH WIND       PRES   REMARKS
CLARKSDALE     FAIR      73  73 100 CALM      30.10R
CLEVELAND      FAIR      72  72 100 S5        30.08S
GREENWOOD      CLEAR     72  70  93 S3        30.10R
6HR MIN TEMP:  71; 6HR MAX TEMP:  75;

GREENVILLE     CLEAR     72  70  93 SE6       30.09R
6HR MIN TEMP:  72; 6HR MAX TEMP:  78;

GRENADA        FAIR      70  68  94 CALM      30.11R
OLIVE BRANCH   PTCLDY    72  72 100 S7        30.09R
OXFORD         FAIR      72  68  88 CALM      30.12R
TUNICA         SUNNY     72  70  94 S5        30.10R
$$

MSZ003>006-009-014>017-022>024-029>033-037>039-221300-
NORTHEAST MISSISSIPPI

CITY           SKY/WX    TMP DP  RH WIND       PRES   REMARKS
BELMONT        FAIR      73  72  94 CALM      30.12R
COLUMBUS AFB   CLEAR     73  72  98 NW2       30.11R
6HR MIN TEMP:  71; 6HR MAX TEMP:  74;

CORINTH        FAIR      75  70  83 W5        30.09R
GOLDN TRIANGLE CLEAR     72  66  83 CALM      30.11R
STARKVILLE     FAIR      70  68  94 CALM      30.11R
TUPELO         CLEAR     75  71  87 W5        30.10R
6HR MIN TEMP:  75; 6HR MAX TEMP:  79;

$$

MSZ040-058-221300-
CENTRAL MISSISSIPPI

CITY           SKY/WX    TMP DP  RH WIND       PRES   REMARKS
JACKSON INTL   PTCLDY    73  71  93 CALM      30.12R
6HR MIN TEMP:  72; 6HR MAX TEMP:  75;

JACKSON HAWKNS PTCLDY    74  71  91 CALM      30.12S
6HR MIN TEMP:  74; 6HR MAX TEMP:  77; 6HR PCP:  0.01;

MERIDIAN KEY   CLEAR     71  69  93 CALM      30.11R
6HR MIN TEMP:  71; 6HR MAX TEMP:  75; 6HR PCP:  0.02;

MERIDIAN NAS   PTCLDY    73  70  90 CALM      30.11S
6HR MIN TEMP:  72; 6HR MAX TEMP:  76;

RAYMOND        FAIR      72  66  83 CALM      30.11S HAZE
VICKSBURG      CLEAR     72  70  93 CALM      30.10S
6HR MIN TEMP:  71; 6HR MAX TEMP:  74; 6HR PCP: TRACE;

$$

MSZ059>079-221300-
SOUTH MISSISSIPPI

CITY           SKY/WX    TMP DP  RH WIND       PRES   REMARKS
BROOKHAVEN     FAIR      72  72 100 CALM      30.14R FOG
COLUMBIA       FAIR      72  72 100 MISG      30.10S FOG
HATTIESBURG    CLEAR     73  71  93 CALM      30.12R
6HR MIN TEMP:  73; 6HR MAX TEMP:  78; 6HR PCP: TRACE;

MCCOMB         PTCLDY    73  71  93 CALM      30.12R
6HR MIN TEMP:  72; 6HR MAX TEMP:  76;

NATCHEZ        PTCLDY    73  70  88 S3        30.12S
6HR MIN TEMP:  73; 6HR MAX TEMP:  75;

PINE BELT      CLEAR     72  68  88 CALM      30.12S
6HR MIN TEMP:  72; 6HR MAX TEMP:  75;

$$

MSZ080>082-221300-
COASTAL MISSISSIPPI

CITY           SKY/WX    TMP DP  RH WIND       PRES   REMARKS
BAY ST LOUIS   CLEAR    N/A N/A N/A CALM      30.11
BILOXI         CLEAR     78  74  86 VRB2      30.10R
6HR MIN TEMP:  78; 6HR MAX TEMP:  81;

PASCAGOULA     CLEAR     74  73  97 CALM      30.10R
6HR MIN TEMP:  73; 6HR MAX TEMP:  78;

GULFPORT       PTCLDY    76  74  93 NW3       30.10R
6HR MIN TEMP:  76; 6HR MAX TEMP:  81;

$$



USA.gov is the U.S. government's official web portal to all federal, state and local government web resources and services.